Regional Weather Roundup
Issued by NWS

Home | Current Version | Previous Version | Text Only | Print | Product List | Glossary On
Versions: 1 2 3 4 5 6 7 8 9 10 11 12 13 14 15 16 17 18 19 20 21 22 23 24 25 26 27 28 29 30 31 32 33 34 35 36 37 38 39 40 41 42 43 44 45 46 47 48 49 50
000
ASUS45 KABQ 270910
RWRNM
WEATHER ROUNDUP FOR NEW MEXICO
NATIONAL WEATHER SERVICE ALBUQUERQUE NM
300 AM MDT MON APR 27 2015

NOTE: "FAIR" MEANS FEW OR NO CLOUDS BELOW 12,000 FEET AGL WITH NO
       SIGNIFICANT WEATHER OR OBSTRUCTIONS TO VISION.

      THIS PRODUCT IS RELEASED AS TWO VERSIONS.  ONE VERSION NEAR
      THE TOP OF THE HOUR CONTAINING PRELIMINARY DATA FROM ALBUQUERQUE
      AND OTHER STATIONS.  A FINAL VERSION WITH ADDITIONAL DATA IS
      ISSUED ABOUT 10 MINUTES AFTER THE HOUR.

NMZ501-503-504-510>518-271000-
NORTHWEST PLATEAU/NORTHCENTRAL MOUNTAINS

CITY           SKY/WX    TMP DP  RH WIND       PRES   REMARKS
FARMINGTON     PTCLDY    42  40  92 NE3       29.92R
LOS ALAMOS     DRIZZLE   37  37  99 N14       29.95F WCI  29
SANTA FE       CLOUDY    39  36  89 N13       29.93R WCI  31
TAOS           CLOUDY    36  28  75 SE5       29.97S WCI  32
ANGEL FIRE     LGT SNOW  32  32  99 N3        29.94S VSB 3/4

$$
NMZ402-403-502-505>509-271000-
WESTCENTRAL MOUNTAINS/SOUTHWEST MOUNTAINS

CITY           SKY/WX    TMP DP  RH WIND       PRES   REMARKS
GALLUP         CLOUDY    43  40  89 CALM      29.93S
GRANTS         DRIZZLE   40  39  95 CALM      29.94S
SILVER CITY      N/A     39  36  87 NW12      29.92F WCI  32

$$
NMZ407-409-411-412-271000-
SOUTHERN DESERTS

CITY           SKY/WX    TMP DP  RH WIND       PRES   REMARKS
LORDSBURG      FAIR      37  36  93 W6        29.90F WCI  33
DEMING         PTCLDY    45  38  76 NW13      29.88F
LAS CRUCES     CLEAR     43  36  75 W8        29.86F
HOLLOMAN AFB   CLOUDY    47  40  75 W2        29.83S
ALAMOGORDO     CLOUDY    45  37  76 SE3       29.84F
T OR C         CLOUDY    46  42  86 N5        29.87R

$$
NMZ519>523-271000-
CENTRAL VALLEYS/CENTRAL HIGHLANDS

CITY           SKY/WX    TMP DP  RH WIND       PRES   REMARKS
ALBUQUERQUE    MOCLDY    45  40  82 NW8       29.91R
DOUBLE EAGLE   CLOUDY    41  38  87 NE8       29.92S
MORIARTY ARPT  CLOUDY    38  35  91 N3        29.94S
CLINES CORNERS LGT SNOW  33  32  96 NE15      29.91R FOG     WCI  23
BELEN          CLOUDY    45  42  91 SE5       29.91R
SOCORRO        CLOUDY    44  42  94 N6        29.88S

$$
NMZ524>526-539-540-271000-
SOUTHCENTRAL MOUNTAINS

CITY           SKY/WX    TMP DP  RH WIND       PRES   REMARKS
RUIDOSO        MOCLDY    37  36  93 NW9       29.89R WCI  31

$$
NMZ527>531-271000-
NORTHEAST HIGHLANDS/NORTHEAST PLAINS

CITY           SKY/WX    TMP DP  RH WIND       PRES   REMARKS
LAS VEGAS      LGT RAIN  33  32  96 N10       29.94S WCI  25
RATON          LGT RAIN  39  36  89 N13       29.96S WCI  31
CLAYTON        LGT RAIN  42  41  96 NE24G30   29.93S

$$
NMZ532>537-271000-
EASTCENTRAL PLAINS

CITY           SKY/WX    TMP DP  RH WIND       PRES   REMARKS
TUCUMCARI      LGT RAIN  48  46  93 N9        29.86F
CANNON AFB     CLOUDY    48  45  89 NE13      29.83R
CLOVIS AIRPORT CLOUDY    48  45  87 NE14      29.83S

$$
NMZ028-029-538-271000-
SOUTHEAST PLAINS

CITY           SKY/WX    TMP DP  RH WIND       PRES   REMARKS
ROSWELL        CLEAR     50  40  68 NW10      29.77F
ARTESIA        CLEAR     46  37  71 W6        29.80R
CARLSBAD       CLEAR     49  34  56 NE3       29.77S
HOBBS          PTCLDY    45  41  87 NW8       29.79S


$$



USA.gov is the U.S. government's official web portal to all federal, state and local government web resources and services.